This is the latest recevied weather packets stored in our database for station/object N2MLB-WX. If no packets are shown the sender has not sent any weather packets the latest 10 day(s).
| Time | Temp. | Humidity | Pressure | Rain* | Wind** | Luminosity | Snow |
|---|---|---|---|---|---|---|---|
| 1777936340 | 20.56° C | 39% | 999 hPa | 0 mm | - | 18 W/m² | - |
| 1777936040 | 20.56° C | 39% | 999 hPa | 0 mm | - | 22 W/m² | - |
| 1777935740 | 20° C | 38% | 999 hPa | 0 mm | - | 18 W/m² | - |
| 1777935440 | 20° C | 44% | 999 hPa | 0 mm | - | 20 W/m² | - |
| 1777935142 | 20° C | 42% | 999 hPa | 0 mm | - | 20 W/m² | - |
| 1777934844 | 20° C | 43% | 999 hPa | 0 mm | - | 22 W/m² | - |
| 1777934539 | 20° C | 41% | 999 hPa | 0 mm | - | 18 W/m² | - |
| 1777934240 | 20.56° C | 40% | 999 hPa | 0 mm | - | 17 W/m² | - |
| 1777933940 | 21.11° C | 40% | 999 hPa | 0 mm | - | 20 W/m² | - |
| 1777933641 | 21.67° C | 41% | 999 hPa | 0 mm | - | 22 W/m² | - |
| 1777933341 | 21.11° C | 39% | 999 hPa | 0 mm | - | 24 W/m² | - |
| 1777933042 | 20.56° C | 40% | 999 hPa | 0 mm | - | 27 W/m² | - |
| 1777932741 | 20.56° C | 42% | 999 hPa | 0 mm | - | 26 W/m² | - |
| 1777932440 | 20.56° C | 43% | 999 hPa | 0 mm | - | 22 W/m² | - |
| 1777932142 | 21.11° C | 43% | 999 hPa | 0 mm | - | 26 W/m² | - |
| 1777931841 | 21.11° C | 39% | 999 hPa | 0 mm | - | 28 W/m² | - |
| 1777931543 | 21.67° C | 40% | 999 hPa | 0 mm | - | 30 W/m² | - |
| 1777931241 | 21.67° C | 38% | 999 hPa | 0 mm | - | 27 W/m² | - |
| 1777930940 | 21.67° C | 39% | 999 hPa | 0 mm | - | 30 W/m² | - |
| 1777930640 | 22.22° C | 35% | 999 hPa | 0 mm | - | 42 W/m² | - |
| 1777930342 | 21.67° C | 40% | 999 hPa | 0 mm | - | 46 W/m² | - |
| 1777930041 | 21.67° C | 39% | 999 hPa | 0 mm | - | 35 W/m² | - |
| 1777929742 | 21.67° C | 40% | 999 hPa | 0 mm | - | 42 W/m² | - |
| 1777929442 | 22.78° C | 37% | 999 hPa | 0 mm | - | 44 W/m² | - |
| 1777929141 | 22.22° C | 40% | 999 hPa | 0 mm | - | 59 W/m² | - |
* Rain latest hour (hover to see other rain measurements)
** Current wind speed in m/s (hover to see current wind gust speed)